timestamp,wind_dir_avg,wind_spd_avg,wind_spd_max_dir,wind_spd_gust,battery_voltage,lat,long
2022-07-31 00:04:00+00:00,212.0,6.83,225.0,7.93,12.65,47.59359,-54.27349
2022-07-31 00:14:00+00:00,215.0,6.42,218.0,7.43,12.49,47.59359,-54.27349
2022-07-31 00:24:00+00:00,222.0,5.9,229.0,7.32,12.49,47.59359,-54.27349
2022-07-31 00:34:00+00:00,220.0,4.82,219.0,5.58,12.49,47.59359,-54.27349
2022-07-31 00:44:00+00:00,220.0,5.24,218.0,6.15,12.49,47.59359,-54.27349
2022-07-31 00:54:00+00:00,216.0,6.24,216.0,6.91,12.49,47.59359,-54.27349
2022-07-31 01:04:00+00:00,216.0,6.61,215.0,7.27,12.49,47.59359,-54.27349
2022-07-31 01:14:01+00:00,221.0,5.92,227.0,7.34,12.49,47.59359,-54.27349
2022-07-31 01:24:01+00:00,221.0,6.24,231.0,7.42,12.49,47.59359,-54.27349
2022-07-31 01:34:01+00:00,216.0,5.81,231.0,7.29,12.49,47.59359,-54.27349
2022-07-31 01:44:01+00:00,216.0,6.1,214.0,6.87,12.49,47.59359,-54.27349
2022-07-31 01:54:01+00:00,215.0,6.05,212.0,6.82,12.49,47.59359,-54.27349
2022-07-31 02:04:01+00:00,224.0,5.95,235.0,7.42,12.49,47.59359,-54.27349
2022-07-31 02:14:00+00:00,223.0,6.51,232.0,7.74,12.41,47.59359,-54.27349
2022-07-31 02:24:00+00:00,216.0,5.64,216.0,6.22,12.41,47.59359,-54.27349
2022-07-31 02:34:00+00:00,221.0,5.91,220.0,6.52,12.41,47.59359,-54.27349
2022-07-31 02:44:00+00:00,232.0,4.62,230.0,5.2,12.41,47.59359,-54.27349
2022-07-31 02:54:00+00:00,217.0,6.14,208.0,7.79,12.41,47.59359,-54.27349
2022-07-31 03:04:00+00:00,221.0,7.93,220.0,8.71,12.41,47.59359,-54.27349
2022-07-31 03:14:00+00:00,224.0,7.45,223.0,8.7,12.49,47.59359,-54.27349
2022-07-31 03:24:00+00:00,224.0,7.12,221.0,8.01,12.49,47.59359,-54.27349
2022-07-31 03:34:00+00:00,215.0,7.88,217.0,8.79,12.49,47.59359,-54.27349
2022-07-31 03:44:00+00:00,214.0,8.56,217.0,9.36,12.49,47.59359,-54.27349
2022-07-31 03:54:00+00:00,215.0,7.47,216.0,8.43,12.49,47.59359,-54.27349
2022-07-31 04:04:00+00:00,228.0,6.96,227.0,8.16,12.49,47.59359,-54.27349
2022-07-31 04:14:01+00:00,226.0,4.92,238.0,6.28,12.41,47.59359,-54.27349
2022-07-31 04:24:01+00:00,229.0,6.51,234.0,7.56,12.41,47.59359,-54.27349
2022-07-31 04:34:01+00:00,232.0,5.99,227.0,7.18,12.41,47.59359,-54.27349
2022-07-31 04:44:01+00:00,233.0,6.75,231.0,7.67,12.41,47.59359,-54.27349
2022-07-31 04:54:01+00:00,231.0,6.16,222.0,7.48,12.41,47.59359,-54.27349
2022-07-31 05:04:01+00:00,226.0,5.47,228.0,6.48,12.41,47.59359,-54.27349
2022-07-31 05:14:01+00:00,222.0,7.29,221.0,8.14,12.41,47.59359,-54.27349
2022-07-31 05:24:01+00:00,227.0,5.92,225.0,6.75,12.41,47.59359,-54.27349
2022-07-31 05:34:01+00:00,227.0,6.82,227.0,8.05,12.41,47.59359,-54.27349
2022-07-31 05:44:01+00:00,232.0,6.13,231.0,7.38,12.41,47.59359,-54.27349
2022-07-31 05:54:01+00:00,236.0,5.58,237.0,6.53,12.41,47.59359,-54.27349
2022-07-31 06:04:01+00:00,240.0,6.1,240.0,6.83,12.41,47.59359,-54.27349
2022-07-31 06:14:01+00:00,243.0,6.5,241.0,7.4,12.41,47.59359,-54.27349
2022-07-31 06:24:01+00:00,239.0,6.7,238.0,7.37,12.41,47.59359,-54.27349
2022-07-31 06:34:01+00:00,239.0,7.35,239.0,8.37,12.41,47.59359,-54.27349
2022-07-31 06:44:01+00:00,241.0,7.41,242.0,8.01,12.41,47.59359,-54.27349
2022-07-31 06:54:01+00:00,241.0,7.04,242.0,8.11,12.41,47.59359,-54.27349
2022-07-31 07:04:01+00:00,236.0,5.83,237.0,6.75,12.41,47.59359,-54.27349
2022-07-31 07:14:01+00:00,255.0,4.98,254.0,5.63,12.33,47.59359,-54.27349
2022-07-31 07:24:01+00:00,255.0,4.19,254.0,4.88,12.33,47.59359,-54.27349
2022-07-31 07:34:01+00:00,246.0,4.56,246.0,5.03,12.33,47.59359,-54.27349
2022-07-31 07:44:01+00:00,246.0,4.63,244.0,5.57,12.33,47.59359,-54.27349
2022-07-31 07:54:01+00:00,238.0,4.93,239.0,5.63,12.33,47.59359,-54.27349
2022-07-31 08:04:01+00:00,238.0,5.55,238.0,6.21,12.33,47.59359,-54.27349
2022-07-31 08:14:01+00:00,245.0,5.09,243.0,5.66,12.33,47.59359,-54.27349
2022-07-31 08:24:01+00:00,239.0,5.14,238.0,5.54,12.33,47.59359,-54.27349
2022-07-31 08:34:01+00:00,235.0,4.97,233.0,5.54,12.33,47.59359,-54.27349
2022-07-31 08:44:01+00:00,229.0,4.76,233.0,5.56,12.33,47.59359,-54.27349
2022-07-31 08:54:01+00:00,236.0,5.2,236.0,5.64,12.33,47.59359,-54.27349
2022-07-31 09:04:01+00:00,230.0,4.99,231.0,5.67,12.33,47.59359,-54.27349
2022-07-31 09:14:01+00:00,230.0,4.68,229.0,5.49,12.49,47.59359,-54.27349
2022-07-31 09:24:01+00:00,227.0,4.22,230.0,5.24,12.49,47.59359,-54.27349
2022-07-31 09:34:01+00:00,230.0,5.83,228.0,6.84,12.49,47.59359,-54.27349
2022-07-31 09:44:01+00:00,233.0,6.82,232.0,7.65,12.49,47.59359,-54.27349
2022-07-31 09:54:01+00:00,238.0,6.35,242.0,7.17,12.49,47.59359,-54.27349
2022-07-31 10:04:01+00:00,232.0,6.65,233.0,7.64,12.49,47.59359,-54.27349
2022-07-31 10:14:01+00:00,230.0,6.95,228.0,8.09,13.13,47.59359,-54.27349
2022-07-31 10:24:01+00:00,227.0,6.06,225.0,7.46,13.13,47.59359,-54.27349
2022-07-31 10:34:01+00:00,237.0,5.48,236.0,6.01,13.13,47.59359,-54.27349
2022-07-31 10:44:01+00:00,237.0,5.19,240.0,5.81,13.13,47.59359,-54.27349
2022-07-31 10:54:01+00:00,236.0,4.64,238.0,5.26,13.13,47.59359,-54.27349
2022-07-31 11:04:01+00:00,238.0,4.94,237.0,5.39,13.13,47.59359,-54.27349
2022-07-31 12:14:00+00:00,257.0,5.19,260.0,6.03,13.84,47.59359,-54.27349
2022-07-31 12:24:00+00:00,258.0,5.65,260.0,5.91,13.84,47.59359,-54.27349
2022-07-31 12:34:00+00:00,252.0,6.92,253.0,7.26,13.84,47.59359,-54.27349
2022-07-31 12:44:00+00:00,248.0,6.1,249.0,6.83,13.84,47.59359,-54.27349
2022-07-31 12:54:00+00:00,252.0,6.45,251.0,6.77,13.84,47.59359,-54.27349
2022-07-31 13:04:00+00:00,245.0,7.19,240.0,8.23,13.84,47.59359,-54.27349
2022-07-31 13:14:01+00:00,247.0,7.06,243.0,8.13,14.24,47.59359,-54.27349
2022-07-31 13:24:01+00:00,259.0,6.45,264.0,7.13,14.24,47.59359,-54.27349
2022-07-31 13:34:01+00:00,272.0,7.7,270.0,8.68,14.24,47.59359,-54.27349
2022-07-31 13:44:01+00:00,277.0,7.56,279.0,7.97,14.24,47.59359,-54.27349
2022-07-31 13:54:01+00:00,272.0,7.17,273.0,7.43,14.24,47.59359,-54.27349
2022-07-31 14:04:01+00:00,275.0,7.03,274.0,7.81,14.24,47.59359,-54.27349
2022-07-31 14:14:00+00:00,281.0,8.18,281.0,9.0,14.32,47.59359,-54.27349
2022-07-31 14:24:00+00:00,275.0,7.1,276.0,7.7,14.32,47.59359,-54.27349
2022-07-31 14:34:00+00:00,274.0,8.64,275.0,10.9,14.32,47.59359,-54.27349
2022-07-31 14:44:00+00:00,282.0,7.6,266.0,10.3,14.32,47.59359,-54.27349
2022-07-31 14:54:00+00:00,272.0,6.46,279.0,7.71,14.32,47.59359,-54.27349
2022-07-31 15:04:00+00:00,279.0,7.21,280.0,8.29,14.32,47.59359,-54.27349
2022-07-31 15:14:00+00:00,272.0,9.4,273.0,10.9,14.32,47.59359,-54.27349
2022-07-31 15:24:00+00:00,261.0,9.89,261.0,11.67,14.32,47.59359,-54.27349
2022-07-31 15:34:00+00:00,265.0,9.45,262.0,11.56,14.32,47.59359,-54.27349
2022-07-31 15:44:00+00:00,264.0,12.19,265.0,13.37,14.32,47.59359,-54.27349
2022-07-31 15:54:00+00:00,268.0,8.63,269.0,9.5,14.32,47.59359,-54.27349
2022-07-31 16:04:00+00:00,262.0,11.09,273.0,12.9,14.32,47.59359,-54.27349
2022-07-31 16:14:01+00:00,265.0,8.25,267.0,9.35,14.24,47.59359,-54.27349
2022-07-31 16:24:01+00:00,273.0,9.4,275.0,10.52,14.24,47.59359,-54.27349
2022-07-31 16:34:01+00:00,272.0,12.07,273.0,12.99,14.24,47.59359,-54.27349
2022-07-31 16:44:01+00:00,270.0,10.81,273.0,11.97,14.24,47.59359,-54.27349
2022-07-31 16:54:01+00:00,260.0,8.25,261.0,9.02,14.24,47.59359,-54.27349
2022-07-31 17:04:01+00:00,257.0,7.76,259.0,8.49,14.24,47.59359,-54.27349
2022-07-31 17:14:00+00:00,244.0,9.23,247.0,10.46,14.16,47.59359,-54.27349
2022-07-31 17:24:00+00:00,252.0,9.36,254.0,11.17,14.16,47.59359,-54.27349
2022-07-31 17:34:00+00:00,252.0,9.25,252.0,11.37,14.16,47.59359,-54.27349
2022-07-31 17:44:00+00:00,257.0,7.75,257.0,9.14,14.16,47.59359,-54.27349
2022-07-31 17:54:00+00:00,258.0,8.95,255.0,10.49,14.16,47.59359,-54.27349
2022-07-31 18:04:00+00:00,260.0,10.93,260.0,11.96,14.16,47.59359,-54.27349
2022-07-31 19:14:00+00:00,261.0,7.5,256.0,8.62,13.76,47.59359,-54.27349
2022-07-31 19:24:00+00:00,265.0,8.03,273.0,8.96,13.76,47.59359,-54.27349
2022-07-31 19:34:00+00:00,271.0,7.54,273.0,8.95,13.76,47.59359,-54.27349
2022-07-31 19:44:00+00:00,273.0,5.9,279.0,6.78,13.76,47.59359,-54.27349
2022-07-31 19:54:00+00:00,265.0,6.42,268.0,7.57,13.76,47.59359,-54.27349
2022-07-31 20:04:00+00:00,244.0,5.51,250.0,7.05,13.76,47.59359,-54.27349
2022-07-31 20:14:01+00:00,256.0,5.8,256.0,7.22,13.53,47.59359,-54.27349
2022-07-31 20:24:01+00:00,244.0,5.21,238.0,6.4,13.53,47.59359,-54.27349
2022-07-31 20:34:01+00:00,251.0,5.34,253.0,6.32,13.53,47.59359,-54.27349
2022-07-31 20:44:01+00:00,251.0,4.33,243.0,5.05,13.53,47.59359,-54.27349
2022-07-31 20:54:01+00:00,257.0,6.27,261.0,6.9,13.53,47.59359,-54.27349
2022-07-31 21:04:01+00:00,241.0,5.56,252.0,6.5,13.53,47.59359,-54.27349
2022-07-31 21:14:01+00:00,252.0,5.39,251.0,6.07,13.37,47.59359,-54.27349
2022-07-31 21:24:01+00:00,268.0,4.69,274.0,5.27,13.37,47.59359,-54.27349
2022-07-31 21:34:01+00:00,266.0,6.84,270.0,7.87,13.37,47.59359,-54.27349
2022-07-31 21:44:01+00:00,260.0,5.46,263.0,5.85,13.37,47.59359,-54.27349
2022-07-31 21:54:01+00:00,267.0,6.17,269.0,7.07,13.37,47.59359,-54.27349
2022-07-31 22:04:01+00:00,268.0,6.45,270.0,7.28,13.37,47.59359,-54.27349
2022-07-31 22:14:00+00:00,273.0,5.14,273.0,5.75,13.21,47.59359,-54.27349
2022-07-31 22:24:00+00:00,272.0,8.31,272.0,9.36,13.21,47.59359,-54.27349
2022-07-31 22:34:00+00:00,269.0,6.39,273.0,7.09,13.21,47.59359,-54.27349
2022-07-31 22:44:00+00:00,267.0,6.04,266.0,6.54,13.21,47.59359,-54.27349
2022-07-31 22:54:00+00:00,263.0,6.23,261.0,8.5,13.21,47.59359,-54.27349
2022-07-31 23:04:00+00:00,264.0,6.48,268.0,7.55,13.21,47.59359,-54.27349
2022-07-31 23:14:00+00:00,261.0,5.92,266.0,7.05,12.81,47.59359,-54.27349
2022-07-31 23:24:00+00:00,260.0,6.35,263.0,6.93,12.81,47.59359,-54.27349
2022-07-31 23:34:00+00:00,262.0,6.16,262.0,7.12,12.81,47.59359,-54.27349
2022-07-31 23:44:00+00:00,270.0,7.32,272.0,8.29,12.81,47.59359,-54.27349
2022-07-31 23:54:00+00:00,260.0,6.01,262.0,6.8,12.81,47.59359,-54.27349
